Location: Newark
(25.4800°N, 85.7200°E)
Time: 19:41:23
(UTC+00:00)

Vanguard 1 Rocket - Pass Details

Date: 28 August 2019
Orbit: 650 x 4226 km, 34.3° (Epoch: 17 October)

Event Time Altitude Azimuth Distance (km) Brightness Sun altitude
Rises 00:51:13 0° 289° (WNW) 3,500 9.8 11.5°
Reaches altitude 10° 00:53:17 10° 285° (WNW) 2,777 9.4 12.0°
Maximum altitude 00:59:49 57° 207° (SSW) 1,670 8.8 13.5°
Drops below altitude 10° 01:12:23 10° 133° (SE) 5,144 12.0 16.3°
Sets 01:17:46 0° 130° (SE) 6,749 12.6 17.5°
